星链-37090(STARLINK-37090)

导读

STARLINK-37090(NORAD编号68193)是美国SpaceX公司星链(Starlink)星座中的一颗低轨互联网卫星,星链项目旨在通过部署近地轨道卫星群,为全球提供高速低延迟宽带互联网服务,重点覆盖地面基础设施难以抵达的偏远区域。 该卫星运行于近地轨道,遵循星链星座标准设计,采用紧凑平板构型适配批量发射,属于星链大规模组网中的一员,目前在轨运行,承担全球卫星互联网接入服务功能,和其他星链卫星共同推进星座全球覆盖的建设目标。

基本信息
目录编号:
68193
目录名称:
STARLINK-37090
国际标识:
2026-050AC
轨道中心:
EARTH
卫星名称:
星链-37090
卫星全名:
星链-37090(STARLINK-37090)
卫星状态:
在轨 (已飞行175 天)
发射日期:
2026-03-14 UTC
国别 :
美国 (US)
星等 :
--
轨道信息
数据来源 国际轨道数据
星历时间: 2026-09-05T10:38:20+0800
10小时前
查看轨道信息
半长轴: 6840.822km
偏心率: 0.000132
轨道倾角: 53.157°
近地点辐角 92.490°
升交点赤经 149.776°
平近点角 267.625°
近地点: 461.782km
远地点: 463.588km
周期: 93.847分钟
每日圈数: 15.344064
详细信息
固有亮度:
5
最大亮度:
2.5
卫星平台:
Starlink V1.0
覆盖范围:
全球
运营商:
太空探索技术公司
运营商所在国:
美国
制造商(研发单位):
太空探索技术公司
制造商所在国:
美国
使用方式:
暂无
卫星简介
Starlink 计划是 SpaceX 推出的全球卫星互联网项目,通过发射低轨道卫星,为全球尤其是偏远地区提供高速、低延迟的互联网服务。自 2019 年起,Starlink 已部署数千颗卫星,旨在缩小全球数字鸿沟,推动互联网普及。该项目还为军事、航空等行业提供通信支持,带来广泛经济效益。
2D轨道图
3D轨道图
轨道高度分析图
轨道倾角分析图
轨道综合分析图
查看轨道综合分析图
交会数据列表
事件ID 空间交会对象 最接近时刻(TCA) 交会距离 交会风险概率(CRP) 交会风险指数(CRI) 操作
CDM_260906-185705-894006-819321
2026-09-06T
18:57:07+0000
0.448 km
远距离
1.373306E-4 高风险 0.78
CDM_260906-115505-894006-819321
2026-09-06T
11:55:03+0000
0.666 km
远距离
4.69622E-5 中风险 0.68
CDM_260907-053105-301006-819321
2026-09-07T
05:31:57+0000
1.334 km
极远距离
8.566513E-6 低风险 0.54
CDM_260907-184905-301006-819321
2026-09-07T
18:49:12+0000
1.563 km
极远距离
5.069407E-6 低风险 0.49
CDM_260907-171505-301006-819321
2026-09-07T
17:15:24+0000
2.297 km
极远距离
1.81529E-6 低风险 0.4
CDM_260903-171502-077406-819323
2026-09-03T
17:15:21+0000
2.614 km
极远距离
1.533829E-6 低风险 0.39
CDM_260906-102105-894006-819321
2026-09-06T
10:21:15+0000
2.108 km
极远距离
1.267182E-6 低风险 0.37
CDM_260905-120906-819306-961621
2026-09-05T
12:09:27+0000
2.806 km
极远距离
1.249694E-6 低风险 0.37
CDM_260903-094305-389306-819321
2026-09-03T
09:43:45+0000
2.977 km
极远距离
9.771348E-7 极低风险 0.35
CDM_260907-045705-329106-819321
2026-09-07T
04:57:23+0000
2.746 km
极远距离
9.692715E-7 极低风险 0.35